{"data":{"norad_id":53559,"intl_designator":"2022-101AJ","name":"STARLINK-4508","alt_names":[],"object_type":"PAYLOAD","status":"ACTIVE","operator":null,"country":"US","launch_date":"2022-08-19","launch_site_code":"AFETR","launch_vehicle":null,"mission":null,"orbit_class":"UNKNOWN","rcs_meters":null,"size_class":null,"mass_kg":null,"dimensions":null,"purposes":["comms"],"wikipedia_slug":null,"has_3d_model":false,"image_url":null,"decayed_at":null,"tle_current":{"epoch":"2026-06-08T23:19:57.660096Z","epoch_age_seconds":9023861,"freshness":"OLD","line1":"1 53559U 22101AJ  26159.97219514  .09717160  12511-4  28374-3 0  9996","line2":"2 53559  53.2045 348.2333 0007571 284.4845  75.5365 16.44753530210450","mean_motion":16.4475353,"eccentricity":0.0007571,"inclination_deg":53.2045,"raan_deg":348.2333,"arg_perigee_deg":284.4845,"mean_anomaly_deg":75.5365,"bstar":0.00028374,"rev_number":21045,"period_min":87.551111685409,"perigee_km":148.24305879658,"apogee_km":158.13279099786,"semimajor_km":6531.3249248972,"source":"CELESTRAK","updated_at":"2026-06-09T09:01:12.024266Z"}}}